| time (UTC) | temp F | wind direction | speed knots | gust knots | rain 1hr in | rain 24hr in | rain mn in | humidity % | barometer mb |
| 20260901014012 | 93 | 152 | 0.0 | 0.9 | 0.00 | 0.00 | 0.00 | 51 | 1014.3 |
| 20260901013513 | 93 | 152 | 0.0 | 0.9 | 0.00 | 0.00 | 0.00 | 51 | 1014.4 |
| 20260901013026 | 94 | 152 | 0.0 | 0.9 | 0.00 | 0.00 | 0.00 | 51 | 1014.3 |
| 20260901012511 | 94 | 152 | 0.0 | 0.9 | 0.00 | 0.00 | 0.00 | 51 | 1014.4 |
| 20260901012014 | 94 | 152 | 0.0 | 2.6 | 0.00 | 0.00 | 0.00 | 51 | 1014.3 |
| 20260901011537 | 95 | 152 | 0.0 | 2.6 | 0.00 | 0.00 | 0.00 | 50 | 1014.2 |
| 20260901011005 | 95 | 152 | 0.0 | 1.7 | 0.00 | 0.00 | 0.00 | 49 | 1014.2 |
| 20260901010504 | 95 | 152 | 0.0 | 1.7 | 0.00 | 0.00 | 0.00 | 47 | 1014.2 |
| 20260901010019 | 96 | 153 | 0.0 | 1.7 | 0.00 | 0.00 | 0.00 | 47 | 1014.1 |
| 20260901005507 | 96 | 151 | 0.0 | 2.6 | 0.00 | 0.00 | 0.00 | 46 | 1014.1 |
| 20260901005008 | 96 | 151 | 0.0 | 2.6 | 0.00 | 0.00 | 0.00 | 45 | 1014.1 |
| 20260901004535 | 97 | 149 | 0.0 | 6.1 | 0.00 | 0.00 | 0.00 | 43 | 1014.0 |
| 20260901004008 | 97 | 138 | 0.9 | 6.1 | 0.00 | 0.00 | 0.00 | 42 | 1014.0 |
| 20260901003511 | 97 | 173 | 0.0 | 6.1 | 0.00 | 0.00 | 0.00 | 40 | 1014.0 |
| 20260901003024 | 98 | 140 | 0.9 | 7.8 | 0.00 | 0.00 | 0.00 | 40 | 1014.0 |
| 20260901002514 | 98 | 155 | 0.9 | 7.8 | 0.00 | 0.00 | 0.00 | 39 | 1014.0 |
| 20260901002018 | 98 | 196 | 0.9 | 7.8 | 0.00 | 0.00 | 0.00 | 39 | 1014.0 |
| 20260901001529 | 98 | 123 | 0.9 | 7.0 | 0.00 | 0.00 | 0.00 | 40 | 1014.0 |
| 20260901001013 | 98 | 154 | 2.6 | 7.0 | 0.00 | 0.00 | 0.00 | 40 | 1014.0 |
| 20260901000512 | 98 | 120 | 1.7 | 8.7 | 0.00 | 0.00 | 0.00 | 40 | 1014.0 |
| 20260901000034 | 98 | 128 | 3.5 | 8.7 | 0.00 | 0.00 | 0.00 | 39 | 1014.0 |
| 20260831235504 | 99 | 121 | 5.2 | 8.7 | 0.00 | 0.00 | 0.00 | 38 | 1014.0 |
| 20260831235006 | 99 | 134 | 2.6 | 7.8 | 0.00 | 0.00 | 0.00 | 38 | 1014.0 |
| 20260831234516 | 99 | 157 | 1.7 | 10.4 | 0.00 | 0.00 | 0.00 | 38 | 1014.2 |
| 20260831234010 | 99 | 168 | 0.9 | 10.4 | 0.00 | 0.00 | 0.00 | 38 | 1014.1 |
| 20260831233507 | 99 | 103 | 1.7 | 7.0 | 0.00 | 0.00 | 0.00 | 38 | 1014.1 |
| 20260831233036 | 100 | 132 | 0.9 | 7.8 | 0.00 | 0.00 | 0.00 | 38 | 1014.0 |
| 20260831232514 | 100 | 123 | 2.6 | 9.6 | 0.00 | 0.00 | 0.00 | 36 | 1014.0 |
| 20260831232012 | 102 | 128 | 6.1 | 9.6 | 0.00 | 0.00 | 0.00 | 35 | 1014.0 |
| 20260831231535 | 102 | 164 | 0.9 | 7.0 | 0.00 | 0.00 | 0.00 | 34 | 1013.9 |
| 20260831231014 | 102 | 144 | 0.0 | 4.3 | 0.00 | 0.00 | 0.00 | 34 | 1013.9 |
| 20260831230514 | 102 | 202 | 0.9 | 4.3 | 0.00 | 0.00 | 0.00 | 34 | 1013.9 |
| 20260831230027 | 102 | 112 | 0.0 | 3.5 | 0.00 | 0.00 | 0.00 | 35 | 1014.0 |
| 20260831225514 | 102 | 182 | 0.0 | 8.7 | 0.00 | 0.00 | 0.00 | 35 | 1014.0 |
| 20260831225018 | 101 | 184 | 0.0 | 8.7 | 0.00 | 0.00 | 0.00 | 35 | 1014.0 |
| 20260831224532 | 101 | 187 | 0.0 | 6.1 | 0.00 | 0.00 | 0.00 | 36 | 1014.0 |
| 20260831224006 | 101 | 171 | 1.7 | 6.1 | 0.00 | 0.00 | 0.00 | 35 | 1014.1 |
| 20260831223507 | 101 | 102 | 1.7 | 7.0 | 0.00 | 0.00 | 0.00 | 34 | 1014.2 |
| 20260831223018 | 101 | 158 | 0.9 | 7.0 | 0.00 | 0.00 | 0.00 | 34 | 1014.2 |
| 20260831222508 | 101 | 118 | 3.5 | 8.7 | 0.00 | 0.00 | 0.00 | 34 | 1014.3 |
| 20260831222012 | 102 | 118 | 0.0 | 9.6 | 0.00 | 0.00 | 0.00 | 33 | 1014.3 |
| 20260831221532 | 103 | 118 | 5.2 | 9.6 | 0.00 | 0.00 | 0.00 | 33 | 1014.3 |
| 20260831221011 | 104 | 143 | 0.9 | 8.7 | 0.00 | 0.00 | 0.00 | 33 | 1014.3 |
| 20260831220513 | 103 | 167 | 0.0 | 7.0 | 0.00 | 0.00 | 0.00 | 34 | 1014.3 |
| 20260831220026 | 103 | 163 | 0.9 | 7.0 | 0.00 | 0.00 | 0.00 | 33 | 1014.4 |
| 20260831215514 | 103 | 163 | 0.9 | 7.0 | 0.00 | 0.00 | 0.00 | 33 | 1014.4 |
| 20260831215015 | 103 | 277 | 0.0 | 7.0 | 0.00 | 0.00 | 0.00 | 33 | 1014.5 |
| 20260831214539 | 103 | 146 | 1.7 | 7.0 | 0.00 | 0.00 | 0.00 | 33 | 1014.7 |
| 20260831214015 | 103 | 169 | 1.7 | 7.0 | 0.00 | 0.00 | 0.00 | 33 | 1014.6 |
| 20260831213516 | 103 | 173 | 1.7 | 7.8 | 0.00 | 0.00 | 0.00 | 34 | 1014.7 |
| 20260831213030 | 103 | 194 | 1.7 | 7.8 | 0.00 | 0.00 | 0.00 | 34 | 1014.7 |
| 20260831212507 | 104 | 144 | 0.0 | 6.1 | 0.00 | 0.00 | 0.00 | 33 | 1014.8 |
| 20260831212008 | 104 | 199 | 0.0 | 6.1 | 0.00 | 0.00 | 0.00 | 34 | 1014.8 |
| 20260831211520 | 103 | 197 | 1.7 | 6.1 | 0.00 | 0.00 | 0.00 | 34 | 1014.9 |
| 20260831211009 | 103 | 232 | 0.0 | 6.1 | 0.00 | 0.00 | 0.00 | 35 | 1014.9 |
| 20260831210510 | 102 | 205 | 0.0 | 7.8 | 0.00 | 0.00 | 0.00 | 35 | 1014.9 |
| 20260831210023 | 101 | 238 | 2.6 | 7.8 | 0.00 | 0.00 | 0.00 | 35 | 1015.0 |
| 20260831205512 | 101 | 146 | 1.7 | 7.8 | 0.00 | 0.00 | 0.00 | 35 | 1015.1 |
| 20260831205014 | 102 | 148 | 1.7 | 7.8 | 0.00 | 0.00 | 0.00 | 34 | 1015.2 |
| 20260831204529 | 102 | 144 | 0.0 | 8.7 | 0.00 | 0.00 | 0.00 | 34 | 1015.2 |
| 20260831204014 | 102 | 160 | 0.0 | 9.6 | 0.00 | 0.00 | 0.00 | 34 | 1015.3 |
| 20260831203516 | 102 | 187 | 0.9 | 9.6 | 0.00 | 0.00 | 0.00 | 34 | 1015.4 |
| 20260831203029 | 101 | 126 | 1.7 | 6.1 | 0.00 | 0.00 | 0.00 | 35 | 1015.4 |
| 20260831202515 | 101 | 190 | 1.7 | 7.8 | 0.00 | 0.00 | 0.00 | 36 | 1015.5 |
| 20260831202015 | 101 | 137 | 2.6 | 7.8 | 0.00 | 0.00 | 0.00 | 36 | 1015.6 |
| 20260831201533 | 102 | 139 | 2.6 | 7.8 | 0.00 | 0.00 | 0.00 | 36 | 1015.7 |
| 20260831201008 | 102 | 155 | 2.6 | 7.8 | 0.00 | 0.00 | 0.00 | 36 | 1015.8 |
| 20260831200509 | 102 | 148 | 0.0 | 7.0 | 0.00 | 0.00 | 0.00 | 35 | 1015.9 |
| 20260831200023 | 102 | 164 | 0.9 | 9.6 | 0.00 | 0.00 | 0.00 | 35 | 1016.0 |
| 20260831195510 | 101 | 140 | 2.6 | 9.6 | 0.00 | 0.00 | 0.00 | 35 | 1016.0 |
| 20260831195011 | 101 | 202 | 1.7 | 8.7 | 0.00 | 0.00 | 0.00 | 36 | 1016.1 |
| 20260831194526 | 102 | 132 | 2.6 | 7.8 | 0.00 | 0.00 | 0.00 | 37 | 1016.1 |
| 20260831194015 | 102 | 161 | 1.7 | 7.0 | 0.00 | 0.00 | 0.00 | 37 | 1016.1 |
| 20260831193514 | 102 | 144 | 2.6 | 7.0 | 0.00 | 0.00 | 0.00 | 38 | 1016.2 |
| 20260831193036 | 102 | 168 | 0.0 | 7.0 | 0.00 | 0.00 | 0.00 | 39 | 1016.3 |
| 20260831192513 | 102 | 162 | 0.9 | 7.0 | 0.00 | 0.00 | 0.00 | 39 | 1016.3 |
| 20260831192004 | 101 | 189 | 1.7 | 8.7 | 0.00 | 0.00 | 0.00 | 39 | 1016.4 |
| 20260831191514 | 101 | 150 | 0.9 | 8.7 | 0.00 | 0.00 | 0.00 | 40 | 1016.4 |
| 20260831191005 | 101 | 189 | 0.0 | 8.7 | 0.00 | 0.00 | 0.00 | 40 | 1016.4 |
| 20260831190506 | 101 | 159 | 2.6 | 6.1 | 0.00 | 0.00 | 0.00 | 40 | 1016.5 |
| 20260831190018 | 101 | 190 | 0.0 | 9.6 | 0.00 | 0.00 | 0.00 | 40 | 1016.5 |
| 20260831185510 | 101 | 152 | 1.7 | 9.6 | 0.00 | 0.00 | 0.00 | 40 | 1016.6 |
| 20260831185011 | 101 | 139 | 0.9 | 9.6 | 0.00 | 0.00 | 0.00 | 40 | 1016.5 |
| 20260831184525 | 101 | 215 | 0.0 | 7.8 | 0.00 | 0.00 | 0.00 | 40 | 1016.6 |
| 20260831184003 | 101 | 148 | 3.5 | 7.8 | 0.00 | 0.00 | 0.00 | 40 | 1016.6 |
| 20260831183503 | 100 | 176 | 1.7 | 6.1 | 0.00 | 0.00 | 0.00 | 40 | 1016.7 |
| 20260831183004 | 100 | 185 | 2.6 | 9.6 | 0.00 | 0.00 | 0.00 | 42 | 1016.7 |
| 20260831182507 | 100 | 190 | 0.0 | 9.6 | 0.00 | 0.00 | 0.00 | 41 | 1016.8 |
| 20260831182006 | 100 | 164 | 1.7 | 8.7 | 0.00 | 0.00 | 0.00 | 42 | 1017.0 |
| 20260831181510 | 100 | 126 | 3.5 | 8.7 | 0.00 | 0.00 | 0.00 | 42 | 1017.1 |
| 20260831181004 | 100 | 167 | 0.9 | 6.1 | 0.00 | 0.00 | 0.00 | 44 | 1017.1 |
| 20260831180504 | 99 | 165 | 1.7 | 6.1 | 0.00 | 0.00 | 0.00 | 44 | 1017.1 |
| 20260831180019 | 99 | 180 | 0.9 | 7.8 | 0.00 | 0.00 | 0.00 | 45 | 1017.2 |
| 20260831175507 | 99 | 142 | 0.9 | 7.8 | 0.00 | 0.00 | 0.00 | 44 | 1017.2 |
| 20260831175016 | 99 | 170 | 2.6 | 7.0 | 0.00 | 0.00 | 0.00 | 45 | 1017.3 |
| 20260831174521 | 98 | 160 | 1.7 | 7.8 | 0.00 | 0.00 | 0.00 | 45 | 1017.5 |
| 20260831174010 | 98 | 156 | 4.3 | 7.8 | 0.00 | 0.00 | 0.00 | 46 | 1017.6 |
| 20260831173512 | 98 | 186 | 1.7 | 7.8 | 0.00 | 0.00 | 0.00 | 46 | 1017.6 |
| 20260831173025 | 98 | 115 | 1.7 | 7.0 | 0.00 | 0.00 | 0.00 | 46 | 1017.7 |
| 20260831172502 | 98 | 171 | 0.9 | 7.0 | 0.00 | 0.00 | 0.00 | 46 | 1017.7 |
| 20260831172003 | 98 | 153 | 2.6 | 7.0 | 0.00 | 0.00 | 0.00 | 46 | 1017.8 |
| 20260831171512 | 97 | 223 | 0.9 | 7.0 | 0.00 | 0.00 | 0.00 | 48 | 1017.9 |
| 20260831171003 | 97 | 150 | 0.9 | 7.0 | 0.00 | 0.00 | 0.00 | 48 | 1018.0 |
| 20260831170503 | 97 | 144 | 1.7 | 6.1 | 0.00 | 0.00 | 0.00 | 48 | 1018.0 |
| 20260831170023 | 97 | 165 | 0.9 | 7.8 | 0.00 | 0.00 | 0.00 | 49 | 1018.0 |
| 20260831165506 | 96 | 157 | 0.9 | 7.8 | 0.00 | 0.00 | 0.00 | 49 | 1018.0 |
| 20260831165003 | 97 | 126 | 1.7 | 7.8 | 0.00 | 0.00 | 0.00 | 50 | 1018.1 |
| 20260831164520 | 97 | 190 | 0.9 | 7.8 | 0.00 | 0.00 | 0.00 | 49 | 1018.1 |
| 20260831164012 | 97 | 185 | 0.9 | 7.8 | 0.00 | 0.00 | 0.00 | 50 | 1018.2 |
| 20260831163508 | 98 | 138 | 1.7 | 7.0 | 0.00 | 0.00 | 0.00 | 48 | 1018.2 |
| 20260831163023 | 98 | 188 | 0.0 | 6.1 | 0.00 | 0.00 | 0.00 | 47 | 1018.2 |
| 20260831162510 | 98 | 154 | 0.0 | 6.1 | 0.00 | 0.00 | 0.00 | 50 | 1018.3 |
| 20260831162011 | 98 | 188 | 0.0 | 3.5 | 0.00 | 0.00 | 0.00 | 46 | 1018.4 |
| 20260831161531 | 97 | 197 | 0.0 | 6.1 | 0.00 | 0.00 | 0.00 | 46 | 1018.3 |
| 20260831161002 | 97 | 190 | 0.9 | 6.1 | 0.00 | 0.00 | 0.00 | 47 | 1018.3 |
| 20260831160504 | 97 | 174 | 0.0 | 6.1 | 0.00 | 0.00 | 0.00 | 47 | 1018.3 |
| 20260831160008 | 96 | 236 | 0.0 | 6.1 | 0.00 | 0.00 | 0.00 | 46 | 1018.3 |
| 20260831155513 | 96 | 215 | 0.0 | 4.3 | 0.00 | 0.00 | 0.00 | 47 | 1018.3 |
| 20260831155004 | 96 | 183 | 0.0 | 3.5 | 0.00 | 0.00 | 0.00 | 47 | 1018.2 |
| 20260831154558 | 96 | 278 | 0.0 | 6.1 | 0.00 | 0.00 | 0.00 | 47 | 1018.4 |
| 20260831154005 | 95 | 255 | 0.0 | 6.1 | 0.00 | 0.00 | 0.00 | 50 | 1018.3 |
| 20260831153508 | 95 | 253 | 0.9 | 6.1 | 0.00 | 0.00 | 0.00 | 48 | 1018.3 |
| 20260831153019 | 95 | 207 | 0.0 | 6.1 | 0.00 | 0.00 | 0.00 | 49 | 1018.3 |
| 20260831152508 | 94 | 272 | 0.0 | 6.1 | 0.00 | 0.00 | 0.00 | 53 | 1018.3 |
| 20260831152013 | 94 | 217 | 0.0 | 5.2 | 0.00 | 0.00 | 0.00 | 52 | 1018.3 |
| 20260831151524 | 93 | 235 | 0.0 | 5.2 | 0.00 | 0.00 | 0.00 | 51 | 1018.3 |
| 20260831151009 | 93 | 195 | 0.9 | 5.2 | 0.00 | 0.00 | 0.00 | 52 | 1018.3 |
| 20260831150512 | 93 | 232 | 0.0 | 6.1 | 0.00 | 0.00 | 0.00 | 53 | 1018.2 |
| 20260831150027 | 93 | 242 | 0.0 | 6.1 | 0.00 | 0.00 | 0.00 | 56 | 1018.2 |
| 20260831145503 | 92 | 225 | 0.0 | 4.3 | 0.00 | 0.00 | 0.00 | 56 | 1018.1 |
| 20260831145003 | 92 | 240 | 0.0 | 4.3 | 0.00 | 0.00 | 0.00 | 58 | 1018.1 |
| 20260831144507 | 92 | 241 | 0.0 | 4.3 | 0.00 | 0.00 | 0.00 | 58 | 1018.1 |
| 20260831144006 | 92 | 210 | 0.0 | 2.6 | 0.00 | 0.00 | 0.00 | 58 | 1018.1 |
| 20260831143503 | 91 | 240 | 0.0 | 6.1 | 0.00 | 0.00 | 0.00 | 60 | 1018.1 |
| 20260831143011 | 91 | 241 | 0.0 | 6.1 | 0.00 | 0.00 | 0.00 | 59 | 1018.1 |
| 20260831142505 | 91 | 220 | 0.0 | 0.9 | 0.00 | 0.00 | 0.00 | 61 | 1018.0 |
| 20260831142011 | 90 | 220 | 0.0 | 0.9 | 0.00 | 0.00 | 0.00 | 62 | 1017.9 |
| 20260831141517 | 90 | 220 | 0.0 | 2.6 | 0.00 | 0.00 | 0.00 | 62 | 1017.9 |
| 20260831141009 | 90 | 219 | 0.0 | 2.6 | 0.00 | 0.00 | 0.00 | 63 | 1018.1 |
| 20260831140510 | 90 | 217 | 0.0 | 1.7 | 0.00 | 0.00 | 0.00 | 63 | 1018.1 |
| 20260831140024 | 89 | 219 | 0.0 | 0.9 | 0.00 | 0.00 | 0.00 | 64 | 1018.0 |
| 20260831135511 | 88 | 215 | 0.0 | 1.7 | 0.00 | 0.00 | 0.00 | 65 | 1017.8 |
| 20260831135014 | 88 | 216 | 0.0 | 1.7 | 0.00 | 0.00 | 0.00 | 66 | 1017.8 |
| 20260831134532 | 88 | 212 | 0.0 | 3.5 | 0.00 | 0.00 | 0.00 | 66 | 1017.7 |
| 20260831134006 | 87 | 227 | 0.0 | 3.5 | 0.00 | 0.00 | 0.00 | 67 | 1017.6 |
| 20260831133502 | 87 | 198 | 0.0 | 2.6 | 0.00 | 0.00 | 0.00 | 68 | 1017.6 |
| 20260831133026 | 86 | 190 | 0.0 | 3.5 | 0.00 | 0.00 | 0.00 | 70 | 1017.6 |
| 20260831132509 | 85 | 190 | 0.0 | 3.5 | 0.00 | 0.00 | 0.00 | 70 | 1017.5 |
| 20260831132009 | 85 | 190 | 0.0 | 1.7 | 0.00 | 0.00 | 0.00 | 71 | 1017.3 |
| 20260831131517 | 84 | 184 | 0.0 | 1.7 | 0.00 | 0.00 | 0.00 | 71 | 1017.3 |
| 20260831131012 | 84 | 221 | 0.0 | 1.7 | 0.00 | 0.00 | 0.00 | 72 | 1017.3 |
| 20260831130510 | 83 | 198 | 0.0 | 0.9 | 0.00 | 0.00 | 0.00 | 73 | 1017.2 |
| 20260831130024 | 82 | 200 | 0.0 | 1.7 | 0.00 | 0.00 | 0.00 | 74 | 1017.1 |
| 20260831125510 | 81 | 200 | 0.0 | 1.7 | 0.00 | 0.00 | 0.00 | 75 | 1017.1 |
| 20260831125013 | 81 | 192 | 0.0 | 1.7 | 0.00 | 0.00 | 0.00 | 76 | 1017.1 |
| 20260831124527 | 80 | 185 | 0.0 | 0.9 | 0.00 | 0.00 | 0.00 | 76 | 1017.0 |
| 20260831124011 | 80 | 184 | 0.0 | 0.9 | 0.00 | 0.00 | 0.00 | 77 | 1017.0 |
| 20260831123516 | 79 | 184 | 0.0 | 0.0 | 0.00 | 0.00 | 0.00 | 77 | 1016.9 |
| 20260831123036 | 79 | 184 | 0.0 | 0.0 | 0.00 | 0.00 | 0.00 | 77 | 1016.8 |
| 20260831122503 | 79 | 184 | 0.0 | 0.0 | 0.00 | 0.00 | 0.00 | 77 | 1016.7 |
| 20260831122005 | 79 | 184 | 0.0 | 0.9 | 0.00 | 0.00 | 0.00 | 77 | 1016.7 |
| 20260831121512 | 79 | 184 | 0.0 | 0.9 | 0.00 | 0.00 | 0.00 | 76 | 1016.6 |
| 20260831121006 | 79 | 184 | 0.0 | 0.9 | 0.00 | 0.00 | 0.00 | 76 | 1016.6 |
| 20260831120508 | 79 | 184 | 0.0 | 0.9 | 0.00 | 0.00 | 0.00 | 76 | 1016.6 |
| 20260831120016 | 79 | 182 | 0.0 | 0.9 | 0.00 | 0.00 | 0.00 | 75 | 1016.6 |
| 20260831115510 | 79 | 182 | 0.0 | 0.9 | 0.00 | 0.00 | 0.00 | 75 | 1016.4 |
| 20260831115012 | 79 | 181 | 0.0 | 0.9 | 0.00 | 0.00 | 0.00 | 75 | 1016.4 |
| 20260831114526 | 79 | 181 | 0.0 | 1.7 | 0.00 | 0.00 | 0.00 | 75 | 1016.4 |
| 20260831114012 | 79 | 182 | 0.0 | 1.7 | 0.00 | 0.00 | 0.00 | 74 | 1016.3 |
| 20260831113520 | 79 | 180 | 0.0 | 0.9 | 0.00 | 0.00 | 0.00 | 74 | 1016.2 |
| 20260831113032 | 79 | 180 | 0.0 | 1.7 | 0.00 | 0.00 | 0.00 | 74 | 1016.2 |
| 20260831112515 | 79 | 180 | 0.0 | 1.7 | 0.00 | 0.00 | 0.00 | 74 | 1016.2 |
| 20260831112020 | 79 | 180 | 0.0 | 2.6 | 0.00 | 0.00 | 0.00 | 74 | 1016.0 |
| 20260831111530 | 79 | 180 | 0.0 | 2.6 | 0.00 | 0.00 | 0.00 | 74 | 1015.9 |
| 20260831111003 | 79 | 180 | 0.0 | 3.5 | 0.00 | 0.00 | 0.00 | 73 | 1015.9 |
| 20260831110507 | 79 | 180 | 0.0 | 3.5 | 0.00 | 0.00 | 0.00 | 73 | 1015.8 |
| 20260831110017 | 80 | 187 | 0.0 | 0.9 | 0.00 | 0.00 | 0.00 | 73 | 1015.8 |
| 20260831105507 | 80 | 187 | 0.0 | 2.6 | 0.00 | 0.00 | 0.00 | 72 | 1015.9 |
| 20260831105008 | 80 | 188 | 0.0 | 2.6 | 0.00 | 0.00 | 0.00 | 72 | 1015.9 |
| 20260831104524 | 80 | 190 | 0.0 | 0.9 | 0.00 | 0.00 | 0.00 | 72 | 1015.8 |
| 20260831104012 | 80 | 190 | 0.0 | 0.9 | 0.00 | 0.00 | 0.00 | 72 | 1015.8 |
| 20260831103512 | 80 | 190 | 0.0 | 0.9 | 0.00 | 0.00 | 0.00 | 71 | 1015.7 |
| 20260831103028 | 80 | 190 | 0.0 | 0.9 | 0.00 | 0.00 | 0.00 | 71 | 1015.8 |
| 20260831102514 | 80 | 190 | 0.0 | 0.9 | 0.00 | 0.00 | 0.00 | 71 | 1015.7 |
| 20260831102006 | 80 | 190 | 0.0 | 0.9 | 0.00 | 0.00 | 0.00 | 70 | 1015.7 |
| 20260831101508 | 81 | 190 | 0.0 | 0.9 | 0.00 | 0.00 | 0.00 | 70 | 1015.7 |
| 20260831101004 | 81 | 190 | 0.0 | 0.9 | 0.00 | 0.00 | 0.00 | 70 | 1015.8 |
| 20260831100503 | 81 | 190 | 0.0 | 0.9 | 0.00 | 0.00 | 0.00 | 70 | 1015.7 |
| 20260831100022 | 81 | 190 | 0.0 | 2.6 | 0.00 | 0.00 | 0.00 | 70 | 1015.8 |
| 20260831095503 | 81 | 190 | 0.0 | 3.5 | 0.00 | 0.00 | 0.00 | 69 | 1015.8 |
| 20260831095008 | 81 | 186 | 0.0 | 3.5 | 0.00 | 0.00 | 0.00 | 69 | 1015.8 |
| 20260831094521 | 81 | 186 | 0.0 | 2.6 | 0.00 | 0.00 | 0.00 | 69 | 1015.8 |
| 20260831094010 | 81 | 186 | 0.0 | 4.3 | 0.00 | 0.00 | 0.00 | 69 | 1015.7 |
| 20260831093510 | 81 | 184 | 0.0 | 4.3 | 0.00 | 0.00 | 0.00 | 69 | 1015.8 |
| 20260831093031 | 82 | 201 | 0.0 | 0.0 | 0.00 | 0.00 | 0.00 | 69 | 1015.6 |
| 20260831092517 | 82 | 202 | 0.0 | 0.0 | 0.00 | 0.00 | 0.00 | 68 | 1015.6 |
| 20260831092011 | 82 | 202 | 0.0 | 0.0 | 0.00 | 0.00 | 0.00 | 67 | 1015.6 |
| 20260831091526 | 82 | 202 | 0.0 | 0.0 | 0.00 | 0.00 | 0.00 | 67 | 1015.5 |
| 20260831091003 | 82 | 202 | 0.0 | 0.0 | 0.00 | 0.00 | 0.00 | 66 | 1015.5 |
| 20260831090504 | 82 | 202 | 0.0 | 0.0 | 0.00 | 0.00 | 0.00 | 66 | 1015.5 |
| 20260831090008 | 82 | 202 | 0.0 | 0.0 | 0.00 | 0.00 | 0.00 | 65 | 1015.5 |
| 20260831085503 | 82 | 210 | 0.0 | 0.0 | 0.00 | 0.00 | 0.00 | 65 | 1015.5 |
| 20260831085008 | 82 | 211 | 0.0 | 0.0 | 0.00 | 0.00 | 0.00 | 64 | 1015.5 |
| 20260831084515 | 82 | 211 | 0.0 | 0.0 | 0.00 | 0.00 | 0.00 | 64 | 1015.5 |
| 20260831084008 | 82 | 211 | 0.0 | 0.0 | 0.00 | 0.00 | 0.00 | 63 | 1015.5 |
| 20260831083508 | 82 | 211 | 0.0 | 0.0 | 0.00 | 0.00 | 0.00 | 63 | 1015.4 |
| 20260831083036 | 83 | 211 | 0.0 | 0.0 | 0.00 | 0.00 | 0.00 | 64 | 1015.3 |
| 20260831082509 | 83 | 211 | 0.0 | 0.0 | 0.00 | 0.00 | 0.00 | 63 | 1015.3 |
| 20260831082011 | 83 | 211 | 0.0 | 0.0 | 0.00 | 0.00 | 0.00 | 63 | 1015.3 |
| 20260831081528 | 83 | 211 | 0.0 | 0.0 | 0.00 | 0.00 | 0.00 | 63 | 1015.2 |
| 20260831081011 | 83 | 211 | 0.0 | 0.0 | 0.00 | 0.00 | 0.00 | 63 | 1015.2 |
| 20260831080511 | 83 | 211 | 0.0 | 0.0 | 0.00 | 0.00 | 0.00 | 63 | 1015.2 |
| 20260831080046 | 83 | 211 | 0.0 | 0.0 | 0.00 | 0.00 | 0.00 | 63 | 1015.2 |
| 20260831075504 | 83 | 200 | 0.0 | 0.0 | 0.00 | 0.00 | 0.00 | 64 | 1015.1 |
| 20260831075003 | 83 | 197 | 0.0 | 0.0 | 0.00 | 0.00 | 0.00 | 64 | 1015.1 |
| 20260831074514 | 83 | 197 | 0.0 | 0.0 | 0.00 | 0.00 | 0.00 | 65 | 1015.1 |
| 20260831074004 | 83 | 198 | 0.0 | 0.0 | 0.00 | 0.00 | 0.00 | 65 | 1015.1 |
| 20260831073506 | 83 | 198 | 0.0 | 0.0 | 0.00 | 0.00 | 0.00 | 65 | 1015.0 |
| 20260831073019 | 83 | 198 | 0.0 | 0.0 | 0.00 | 0.00 | 0.00 | 65 | 1015.0 |
| 20260831072509 | 83 | 198 | 0.0 | 0.0 | 0.00 | 0.00 | 0.00 | 65 | 1015.0 |
| 20260831072010 | 83 | 198 | 0.0 | 0.0 | 0.00 | 0.00 | 0.00 | 65 | 1014.9 |
| 20260831071522 | 83 | 198 | 0.0 | 0.0 | 0.00 | 0.00 | 0.00 | 65 | 1014.9 |
| 20260831071010 | 83 | 198 | 0.0 | 0.0 | 0.00 | 0.00 | 0.00 | 65 | 1014.8 |
| 20260831070512 | 83 | 198 | 0.0 | 0.0 | 0.00 | 0.00 | 0.00 | 64 | 1015.0 |
| 20260831070030 | 83 | 198 | 0.0 | 0.0 | 0.00 | 0.00 | 0.00 | 64 | 1015.0 |
| 20260831065514 | 83 | 198 | 0.0 | 0.0 | 0.00 | 0.00 | 0.00 | 64 | 1015.1 |
| 20260831065014 | 83 | 198 | 0.0 | 0.0 | 0.00 | 0.00 | 0.00 | 63 | 1015.1 |
| 20260831064530 | 83 | 198 | 0.0 | 0.0 | 0.00 | 0.00 | 0.00 | 63 | 1015.2 |
| 20260831064003 | 84 | 198 | 0.0 | 0.0 | 0.00 | 0.00 | 0.00 | 63 | 1015.2 |
| 20260831063504 | 84 | 198 | 0.0 | 0.0 | 0.00 | 0.00 | 0.00 | 62 | 1015.1 |
| 20260831063012 | 84 | 198 | 0.0 | 0.0 | 0.00 | 0.00 | 0.00 | 62 | 1015.1 |
| 20260831062508 | 84 | 198 | 0.0 | 0.0 | 0.00 | 0.00 | 0.00 | 62 | 1015.1 |
| 20260831062009 | 84 | 198 | 0.0 | 0.0 | 0.00 | 0.00 | 0.00 | 62 | 1015.1 |
| 20260831061517 | 84 | 198 | 0.0 | 0.0 | 0.00 | 0.00 | 0.00 | 62 | 1015.1 |
| 20260831061010 | 84 | 198 | 0.0 | 0.0 | 0.00 | 0.00 | 0.00 | 62 | 1015.0 |
| 20260831060512 | 84 | 198 | 0.0 | 0.0 | 0.00 | 0.00 | 0.00 | 61 | 1015.1 |
| 20260831060021 | 84 | 198 | 0.0 | 0.0 | 0.00 | 0.00 | 0.00 | 61 | 1015.1 |
| 20260831055510 | 85 | 198 | 0.0 | 0.0 | 0.00 | 0.00 | 0.00 | 60 | 1015.2 |
| 20260831055012 | 85 | 198 | 0.0 | 0.0 | 0.00 | 0.00 | 0.00 | 60 | 1015.2 |
| 20260831054530 | 85 | 198 | 0.0 | 0.0 | 0.00 | 0.00 | 0.00 | 60 | 1015.2 |
| 20260831054019 | 85 | 198 | 0.0 | 0.0 | 0.00 | 0.00 | 0.00 | 59 | 1015.1 |
| 20260831053516 | 85 | 198 | 0.0 | 0.0 | 0.00 | 0.00 | 0.00 | 59 | 1015.1 |
| 20260831053008 | 85 | 198 | 0.0 | 0.0 | 0.00 | 0.00 | 0.00 | 59 | 1015.1 |
| 20260831052504 | 85 | 198 | 0.0 | 0.0 | 0.00 | 0.00 | 0.00 | 59 | 1015.0 |
| 20260831052007 | 86 | 198 | 0.0 | 0.0 | 0.00 | 0.00 | 0.00 | 59 | 1015.0 |
| 20260831051515 | 86 | 198 | 0.0 | 0.0 | 0.00 | 0.00 | 0.00 | 59 | 1015.0 |
| 20260831051013 | 86 | 198 | 0.0 | 0.0 | 0.00 | 0.00 | 0.00 | 59 | 1014.9 |
| 20260831050508 | 86 | 198 | 0.0 | 0.0 | 0.00 | 0.00 | 0.00 | 58 | 1014.9 |
| 20260831050021 | 86 | 198 | 0.0 | 0.0 | 0.00 | 0.00 | 0.00 | 58 | 1014.9 |
| 20260831045508 | 87 | 198 | 0.0 | 0.0 | 0.00 | 0.00 | 0.00 | 58 | 1014.9 |
| 20260831045011 | 87 | 198 | 0.0 | 0.0 | 0.00 | 0.00 | 0.00 | 57 | 1014.9 |
| 20260831044526 | 87 | 198 | 0.0 | 0.0 | 0.00 | 0.00 | 0.00 | 57 | 1014.9 |
| 20260831044013 | 87 | 198 | 0.0 | 0.0 | 0.00 | 0.00 | 0.00 | 56 | 1014.9 |
| 20260831043512 | 87 | 198 | 0.0 | 0.0 | 0.00 | 0.00 | 0.00 | 56 | 1014.9 |
| 20260831043029 | 87 | 198 | 0.0 | 0.0 | 0.00 | 0.00 | 0.00 | 56 | 1014.9 |
| 20260831042515 | 87 | 198 | 0.0 | 0.0 | 0.00 | 0.00 | 0.00 | 55 | 1014.9 |
| 20260831042015 | 87 | 198 | 0.0 | 0.0 | 0.00 | 0.00 | 0.00 | 55 | 1014.8 |
| 20260831041512 | 88 | 198 | 0.0 | 0.0 | 0.00 | 0.00 | 0.00 | 55 | 1014.8 |
| 20260831041019 | 88 | 198 | 0.0 | 0.0 | 0.00 | 0.00 | 0.00 | 55 | 1014.8 |
| 20260831040507 | 88 | 198 | 0.0 | 0.0 | 0.00 | 0.00 | 0.00 | 54 | 1014.7 |
| 20260831040021 | 88 | 198 | 0.0 | 0.0 | 0.00 | 0.00 | 0.00 | 54 | 1014.7 |
| 20260831035511 | 88 | 198 | 0.0 | 0.0 | 0.00 | 0.00 | 0.00 | 54 | 1014.7 |
| 20260831035009 | 88 | 198 | 0.0 | 0.0 | 0.00 | 0.00 | 0.00 | 54 | 1014.6 |
| 20260831034523 | 88 | 198 | 0.0 | 0.0 | 0.00 | 0.00 | 0.00 | 54 | 1014.5 |
| 20260831034011 | 89 | 198 | 0.0 | 0.0 | 0.00 | 0.00 | 0.00 | 54 | 1014.5 |
| 20260831033513 | 89 | 198 | 0.0 | 0.0 | 0.00 | 0.00 | 0.00 | 54 | 1014.4 |
| 20260831033027 | 89 | 198 | 0.0 | 0.0 | 0.00 | 0.00 | 0.00 | 54 | 1014.4 |
| 20260831032514 | 89 | 198 | 0.0 | 0.0 | 0.00 | 0.00 | 0.00 | 54 | 1014.5 |
| 20260831032015 | 89 | 198 | 0.0 | 0.0 | 0.00 | 0.00 | 0.00 | 54 | 1014.5 |
| 20260831031530 | 89 | 198 | 0.0 | 0.0 | 0.00 | 0.00 | 0.00 | 54 | 1014.5 |
| 20260831031018 | 89 | 198 | 0.0 | 0.0 | 0.00 | 0.00 | 0.00 | 54 | 1014.5 |
| 20260831030520 | 89 | 198 | 0.0 | 0.0 | 0.00 | 0.00 | 0.00 | 54 | 1014.5 |
| 20260831030014 | 89 | 198 | 0.0 | 0.0 | 0.00 | 0.00 | 0.00 | 53 | 1014.5 |
| 20260831025515 | 90 | 198 | 0.0 | 0.0 | 0.00 | 0.00 | 0.00 | 53 | 1014.4 |
| 20260831025008 | 90 | 198 | 0.0 | 0.0 | 0.00 | 0.00 | 0.00 | 53 | 1014.4 |
| 20260831024519 | 90 | 198 | 0.0 | 0.0 | 0.00 | 0.00 | 0.00 | 53 | 1014.3 |
| 20260831024011 | 90 | 198 | 0.0 | 0.0 | 0.00 | 0.00 | 0.00 | 52 | 1014.3 |
| 20260831023512 | 91 | 198 | 0.0 | 0.9 | 0.00 | 0.00 | 0.00 | 52 | 1014.2 |
| 20260831023023 | 91 | 198 | 0.0 | 0.9 | 0.00 | 0.00 | 0.00 | 51 | 1014.1 |
| 20260831022514 | 91 | 198 | 0.0 | 0.9 | 0.00 | 0.00 | 0.00 | 51 | 1014.1 |
| 20260831022013 | 91 | 198 | 0.0 | 1.7 | 0.00 | 0.00 | 0.00 | 50 | 1014.0 |
| 20260831021536 | 91 | 198 | 0.0 | 1.7 | 0.00 | 0.00 | 0.00 | 49 | 1014.0 |
| 20260831021014 | 91 | 198 | 0.0 | 0.0 | 0.00 | 0.00 | 0.00 | 48 | 1013.9 |
| 20260831020517 | 91 | 198 | 0.0 | 0.0 | 0.00 | 0.00 | 0.00 | 48 | 1013.8 |
| 20260831020030 | 92 | 198 | 0.0 | 0.0 | 0.00 | 0.00 | 0.00 | 47 | 1013.8 |
| 20260831015516 | 92 | 198 | 0.0 | 0.0 | 0.00 | 0.00 | 0.00 | 47 | 1013.7 |
| 20260831015014 | 92 | 198 | 0.0 | 0.0 | 0.00 | 0.00 | 0.00 | 47 | 1013.6 |
| 20260831014520 | 92 | 198 | 0.0 | 0.9 | 0.00 | 0.00 | 0.00 | 46 | 1013.5 |